QPF
0.03 0.03 0.04 0.04 0.04 0.03 0.06 0.08 0.06 0.04 0.03 0.01 0.02 0.02 0.01 0.02 0.03 0.03 0.03 0.06 0.14 0.10 0.09 0.10 0.08 0.04 0.03 0.05 0.05 0.04 0.03 0.03 0.03 0.04 0.05 0.05 0.06 0.06 0.05 0.04 0.06 0.08 0.07 0.07 0.09 0.11 0.16 0.15 0.13
0.02 0.03 0.04 0.04 0.03 0.03 0.07 0.10 0.08 0.06 0.03 0.02 0.01 0.01 0.01 0.01 0.02 0.03 0.05 0.07 0.08 0.07 0.08 0.08 0.07 0.06 0.04 0.04 0.04 0.03 0.02 0.02 0.04 0.05 0.06 0.06 0.06 0.06 0.04 0.04 0.05 0.08 0.09 0.10 0.12 0.17 0.21 0.16 0.14
0.02 0.03 0.05 0.04 0.03 0.03 0.06 0.08 0.07 0.05 0.03 0.03 0.01 0.00 0.01 0.01 0.03 0.08 0.14 0.13 0.14 0.06 0.05 0.06 0.06 0.05 0.05 0.03 0.03 0.03 0.03 0.02 0.03 0.04 0.06 0.06 0.08 0.08 0.06 0.05 0.05 0.08 0.10 0.13 0.18 0.20 0.17 0.13 0.10
0.01 0.03 0.05 0.05 0.04 0.04 0.05 0.05 0.04 0.04 0.05 0.04 0.02 0.00 0.01 0.02 0.04 0.09 0.15 0.15 0.22 0.08 0.04 0.05 0.06 0.05 0.05 0.04 0.02 0.03 0.03 0.03 0.03 0.05 0.06 0.07 0.10 0.13 0.11 0.07 0.07 0.09 0.11 0.14 0.16 0.12 0.08 0.06 0.06
0.01 0.02 0.03 0.03 0.04 0.05 0.03 0.03 0.03 0.04 0.04 0.03 0.02 0.01 0.02 0.03 0.03 0.05 0.09 0.10 0.11 0.08 0.04 0.05 0.05 0.05 0.06 0.05 0.04 0.04 0.05 0.04 0.04 0.06 0.08 0.08 0.15 0.26 0.17 0.10 0.09 0.08 0.09 0.09 0.09 0.06 0.04 0.03 0.04
0.01 0.02 0.02 0.03 0.03 0.03 0.03 0.02 0.02 0.04 0.03 0.01 0.01 0.02 0.04 0.03 0.02 0.03 0.04 0.03 0.02 0.03 0.03 0.04 0.05 0.04 0.04 0.04 0.04 0.05 0.05 0.05 0.04 0.05 0.07 0.08 0.16 0.23 0.18 0.12 0.12 0.12 0.12 0.12 0.11 0.07 0.05 0.05 0.06
0.02 0.01 0.01 0.01 0.01 0.01 0.01 0.01 0.02 0.03 0.02 0.01 0.00 0.02 0.03 0.03 0.02 0.02 0.02 0.02 0.02 0.02 0.03 0.03 0.03 0.04 0.03 0.03 0.03 0.04 0.04 0.05 0.06 0.06 0.05 0.05 0.08 0.08 0.08 0.09 0.15 0.19 0.18 0.15 0.14 0.10 0.08 0.07 0.09
0.03 0.02 0.01 0.01 0.01 0.01 0.01 0.00 0.02 0.02 0.01 0.01 0.01 0.01 0.02 0.02 0.02 0.02 0.02 0.02 0.03 0.04 0.03 0.02 0.03 0.02 0.02 0.02 0.03 0.04 0.05 0.05 0.05 0.04 0.04 0.04 0.04 0.04 0.05 0.05 0.12 0.21 0.21 0.18 0.17 0.12 0.11 0.10 0.10
0.03 0.07 0.02 0.01 0.00 0.01 0.01 0.01 0.01 0.01 0.01 0.01 0.02 0.02 0.03 0.02 0.01 0.01 0.02 0.02 0.04 0.06 0.05 0.04 0.02 0.03 0.01 0.02 0.03 0.04 0.05 0.06 0.06 0.04 0.04 0.05 0.03 0.02 0.03 0.03 0.07 0.12 0.16 0.19 0.17 0.13 0.12 0.11 0.11
0.01 0.05 0.03 0.00 0.00 0.00 0.01 0.02 0.02 0.01 0.01 0.01 0.02 0.03 0.06 0.04 0.01 0.00 0.01 0.02 0.02 0.03 0.04 0.05 0.03 0.03 0.02 0.02 0.03 0.03 0.02 0.03 0.03 0.03 0.04 0.03 0.02 0.01 0.02 0.04 0.07 0.09 0.12 0.18 0.16 0.13 0.12 0.10 0.08
0.01 0.01 0.01 0.00 0.00 0.00 0.01 0.01 0.01 0.01 0.01 0.02 0.02 0.03 0.04 0.03 0.01 0.01 0.01 0.02 0.02 0.02 0.03 0.03 0.04 0.04 0.03 0.02 0.02 0.02 0.02 0.03 0.03 0.02 0.02 0.03 0.02 0.02 0.02 0.03 0.05 0.05 0.07 0.11 0.11 0.10 0.08 0.06 0.06
0.00 0.00 0.01 0.00 0.00 0.00 0.01 0.01 0.02 0.02 0.02 0.03 0.02 0.02 0.03 0.02 0.02 0.02 0.02 0.01 0.02 0.02 0.02 0.02 0.03 0.04 0.03 0.01 0.01 0.01 0.02 0.02 0.02 0.02 0.03 0.03 0.03 0.03 0.04 0.03 0.03 0.03 0.05 0.08 0.08 0.06 0.05 0.05 0.05
0.00 0.00 0.01 0.01 0.00 0.00 0.01 0.02 0.03 0.03 0.02 0.02 0.02 0.01 0.02 0.02 0.02 0.02 0.01 0.02 0.03 0.02 0.02 0.02 0.02 0.03 0.02 0.01 0.02 0.02 0.02 0.02 0.02 0.03 0.03 0.03 0.04 0.06 0.06 0.06 0.06 0.06 0.06 0.09 0.09 0.09 0.06 0.06 0.06
0.00 0.00 0.00 0.00 0.01 0.01 0.01 0.01 0.02 0.03 0.02 0.02 0.02 0.01 0.01 0.02 0.02 0.02 0.02 0.02 0.01 0.01 0.02 0.02 0.02 0.02 0.02 0.02 0.04 0.04 0.04 0.03 0.03 0.03 0.04 0.05 0.05 0.04 0.04 0.07 0.12 0.10 0.09 0.11 0.15 0.15 0.10 0.08 0.06
0.00 0.01 0.01 0.01 0.02 0.02 0.01 0.01 0.03 0.04 0.03 0.04 0.03 0.02 0.02 0.03 0.03 0.02 0.02 0.01 0.01 0.01 0.01 0.02 0.02 0.03 0.02 0.02 0.03 0.03 0.04 0.04 0.04 0.03 0.03 0.03 0.03 0.05 0.05 0.10 0.16 0.14 0.13 0.13 0.16 0.16 0.13 0.11 0.08
0.00 0.01 0.01 0.01 0.02 0.01 0.01 0.01 0.03 0.05 0.05 0.05 0.04 0.03 0.03 0.03 0.03 0.02 0.01 0.01 0.01 0.01 0.01 0.01 0.02 0.03 0.03 0.02 0.02 0.02 0.03 0.03 0.04 0.03 0.03 0.04 0.04 0.05 0.06 0.05 0.07 0.10 0.12 0.11 0.12 0.11 0.10 0.10 0.08
0.00 0.00 0.01 0.01 0.01 0.01 0.01 0.01 0.02 0.04 0.06 0.06 0.05 0.04 0.05 0.05 0.03 0.02 0.01 0.01 0.01 0.00 0.00 0.01 0.02 0.03 0.03 0.02 0.01 0.01 0.01 0.02 0.03 0.03 0.03 0.03 0.04 0.05 0.06 0.03 0.03 0.06 0.08 0.10 0.11 0.09 0.08 0.09 0.08
0.00 0.00 0.00 0.00 0.01 0.01 0.01 0.01 0.02 0.03 0.06 0.08 0.07 0.06 0.07 0.07 0.03 0.02 0.01 0.01 0.01 0.00 0.00 0.01 0.02 0.02 0.02 0.01 0.01 0.01 0.01 0.02 0.02 0.02 0.02 0.02 0.02 0.03 0.02 0.02 0.03 0.03 0.05 0.08 0.08 0.06 0.06 0.06 0.07
0.00 0.00 0.00 0.00 0.01 0.01 0.01 0.01 0.01 0.02 0.05 0.08 0.09 0.07 0.07 0.07 0.04 0.03 0.02 0.01 0.01 0.01 0.01 0.01 0.01 0.02 0.02 0.01 0.01 0.01 0.02 0.02 0.02 0.01 0.02 0.03 0.02 0.02 0.03 0.03 0.05 0.05 0.04 0.04 0.05 0.05 0.04 0.04 0.06
0.00 0.00 0.00 0.00 0.00 0.01 0.01 0.01 0.01 0.02 0.03 0.07 0.08 0.06 0.05 0.05 0.04 0.03 0.02 0.01 0.01 0.00 0.00 0.00 0.01 0.01 0.01 0.01 0.01 0.01 0.02 0.02 0.03 0.02 0.01 0.03 0.03 0.03 0.03 0.04 0.06 0.05 0.04 0.04 0.04 0.03 0.03 0.04 0.05
0.00 0.00 0.00 0.00 0.00 0.01 0.02 0.01 0.01 0.01 0.03 0.06 0.07 0.05 0.04 0.04 0.04 0.03 0.02 0.01 0.01 0.00 0.00 0.00 0.01 0.01 0.01 0.01 0.01 0.01 0.01 0.02 0.02 0.02 0.01 0.02 0.03 0.03 0.03 0.04 0.05 0.05 0.05 0.05 0.04 0.03 0.02 0.03 0.04
0.00 0.00 0.00 0.00 0.00 0.01 0.02 0.01 0.01 0.01 0.02 0.04 0.05 0.05 0.04 0.04 0.04 0.03 0.02 0.01 0.00 0.00 0.01 0.01 0.01 0.00 0.00 0.00 0.00 0.00 0.00 0.01 0.01 0.01 0.01 0.01 0.02 0.02 0.03 0.04 0.03 0.03 0.04 0.04 0.04 0.03 0.02 0.03 0.03
0.00 0.00 0.00 0.00 0.00 0.00 0.01 0.01 0.01 0.01 0.01 0.02 0.03 0.03 0.03 0.03 0.03 0.03 0.02 0.01 0.01 0.01 0.01 0.01 0.01 0.00 0.00 0.00 0.00 0.00 0.00 0.00 0.00 0.00 0.01 0.01 0.01 0.02 0.03 0.05 0.03 0.03 0.03 0.02 0.03 0.03 0.03 0.02 0.03
0.00 0.00 0.00 0.00 0.00 0.00 0.01 0.00 0.01 0.01 0.01 0.01 0.01 0.01 0.02 0.02 0.02 0.03 0.02 0.02 0.01 0.01 0.01 0.01 0.01 0.00 0.00 0.00 0.00 0.01 0.00 0.00 0.00 0.01 0.01 0.01 0.01 0.02 0.03 0.04 0.04 0.04 0.03 0.02 0.03 0.03 0.03 0.02 0.01
0.00 0.01 0.01 0.01 0.01 0.01 0.00 0.00 0.00 0.01 0.01 0.01 0.01 0.01 0.01 0.01 0.01 0.01 0.01 0.01 0.01 0.01 0.01 0.01 0.00 0.00 0.00 0.00 0.00 0.00 0.00 0.00 0.01 0.01 0.01 0.01 0.01 0.02 0.03 0.03 0.03 0.04 0.03 0.02 0.03 0.02 0.02 0.02 0.01
0.00 0.00 0.00 0.01 0.01 0.00 0.00 0.00 0.01 0.01 0.01 0.01 0.01 0.01 0.00 0.00 0.01 0.01 0.01 0.01 0.01 0.01 0.01 0.01 0.00 0.00 0.00 0.00 0.00 0.00 0.01 0.01 0.01 0.01 0.01 0.01 0.01 0.02 0.03 0.03 0.04 0.03 0.02 0.02 0.03 0.02 0.01 0.01 0.01
0.00 0.00 0.00 0.00 0.00 0.00 0.00 0.00 0.00 0.00 0.00 0.00 0.00 0.00 0.00 0.00 0.00 0.01 0.02 0.02 0.02 0.01 0.02 0.02 0.01 0.01 0.01 0.00 0.00 0.00 0.00 0.01 0.01 0.01 0.01 0.01 0.01 0.02 0.02 0.03 0.04 0.04 0.04 0.03 0.03 0.03 0.03 0.02 0.01
0.00 0.00 0.00 0.00 0.00 0.00 0.00 0.00 0.00 0.00 0.00 0.00 0.00 0.00 0.00 0.00 0.01 0.02 0.02 0.02 0.02 0.01 0.02 0.03 0.03 0.02 0.02 0.01 0.00 0.00 0.01 0.01 0.02 0.02 0.02 0.01 0.01 0.02 0.02 0.03 0.05 0.06 0.07 0.05 0.03 0.02 0.03 0.02 0.02
0.00 0.00 0.00 0.00 0.00 0.00 0.00 0.00 0.00 0.00 0.00 0.00 0.00 0.00 0.00 0.00 0.01 0.02 0.04 0.03 0.01 0.01 0.02 0.02 0.03 0.03 0.03 0.02 0.01 0.00 0.01 0.02 0.02 0.02 0.01 0.02 0.02 0.02 0.02 0.03 0.05 0.05 0.04 0.05 0.05 0.04 0.03 0.03 0.03
0.00 0.00 0.00 0.00 0.00 0.00 0.00 0.00 0.00 0.00 0.00 0.00 0.00 0.00 0.00 0.00 0.01 0.01 0.02 0.02 0.01 0.01 0.01 0.02 0.03 0.04 0.03 0.03 0.02 0.02 0.01 0.02 0.02 0.01 0.01 0.01 0.02 0.02 0.02 0.02 0.03 0.03 0.03 0.04 0.04 0.04 0.04 0.05 0.04
MSLP
1005.13 1005.97 1006.84 1007.62 1008.23 1008.59 1008.68 1008.53 1008.20 1007.79 1007.40 1007.11 1006.94 1006.90 1006.93 1006.97 1006.95 1006.84 1006.63 1006.35 1006.07 1005.87 1005.81 1005.94 1006.25 1006.73 1007.30 1007.90 1008.49 1009.03 1009.50 1009.94 1010.37 1010.82 1011.31 1011.84 1012.38 1012.89 1013.34 1013.70 1013.95 1014.12 1014.23 1014.32 1014.42 1014.55 1014.73 1014.94 1015.17
1005.42 1006.31 1007.19 1007.95 1008.49 1008.77 1008.76 1008.51 1008.08 1007.57 1007.09 1006.71 1006.45 1006.32 1006.28 1006.27 1006.24 1006.15 1006.01 1005.83 1005.68 1005.63 1005.71 1005.96 1006.37 1006.92 1007.53 1008.16 1008.76 1009.31 1009.80 1010.26 1010.71 1011.18 1011.68 1012.20 1012.71 1013.18 1013.58 1013.89 1014.12 1014.27 1014.39 1014.50 1014.63 1014.80 1015.00 1015.23 1015.47
1005.83 1006.72 1007.57 1008.26 1008.72 1008.89 1008.79 1008.45 1007.94 1007.37 1006.83 1006.38 1006.06 1005.87 1005.77 1005.73 1005.69 1005.63 1005.55 1005.47 1005.45 1005.52 1005.73 1006.09 1006.58 1007.17 1007.81 1008.45 1009.05 1009.60 1010.11 1010.58 1011.05 1011.53 1012.03 1012.53 1013.01 1013.44 1013.80 1014.08 1014.28 1014.43 1014.57 1014.72 1014.89 1015.10 1015.34 1015.59 1015.83
1006.32 1007.18 1007.95 1008.54 1008.89 1008.96 1008.76 1008.35 1007.80 1007.19 1006.62 1006.14 1005.79 1005.57 1005.44 1005.38 1005.35 1005.33 1005.32 1005.34 1005.42 1005.60 1005.91 1006.34 1006.87 1007.48 1008.12 1008.75 1009.35 1009.89 1010.40 1010.89 1011.38 1011.87 1012.37 1012.86 1013.31 1013.71 1014.04 1014.29 1014.48 1014.65 1014.82 1015.00 1015.22 1015.48 1015.74 1016.00 1016.23
1006.83 1007.62 1008.29 1008.75 1008.97 1008.93 1008.66 1008.20 1007.63 1007.02 1006.46 1005.99 1005.64 1005.41 1005.29 1005.24 1005.24 1005.26 1005.32 1005.42 1005.59 1005.85 1006.22 1006.69 1007.24 1007.84 1008.46 1009.06 1009.64 1010.18 1010.69 1011.20 1011.71 1012.22 1012.72 1013.20 1013.64 1014.01 1014.31 1014.55 1014.75 1014.93 1015.13 1015.35 1015.61 1015.89 1016.17 1016.42 1016.63
1007.28 1007.97 1008.51 1008.84 1008.94 1008.80 1008.47 1007.98 1007.41 1006.83 1006.30 1005.87 1005.55 1005.36 1005.26 1005.25 1005.29 1005.38 1005.51 1005.68 1005.92 1006.24 1006.64 1007.11 1007.64 1008.21 1008.79 1009.36 1009.91 1010.45 1010.98 1011.51 1012.04 1012.57 1013.09 1013.57 1014.00 1014.35 1014.64 1014.87 1015.07 1015.26 1015.48 1015.73 1016.00 1016.29 1016.57 1016.81 1016.98
1007.58 1008.17 1008.58 1008.78 1008.77 1008.56 1008.18 1007.68 1007.13 1006.59 1006.11 1005.73 1005.47 1005.33 1005.29 1005.34 1005.45 1005.61 1005.81 1006.05 1006.35 1006.69 1007.09 1007.54 1008.04 1008.56 1009.09 1009.63 1010.16 1010.70 1011.25 1011.82 1012.39 1012.95 1013.49 1013.98 1014.40 1014.74 1015.02 1015.24 1015.43 1015.62 1015.84 1016.08 1016.36 1016.63 1016.89 1017.09 1017.24
1007.69 1008.18 1008.48 1008.58 1008.48 1008.21 1007.80 1007.30 1006.78 1006.28 1005.85 1005.53 1005.33 1005.26 1005.30 1005.43 1005.63 1005.87 1006.15 1006.46 1006.79 1007.15 1007.54 1007.96 1008.41 1008.88 1009.37 1009.88 1010.41 1010.97 1011.55 1012.15 1012.76 1013.35 1013.91 1014.41 1014.83 1015.17 1015.42 1015.62 1015.80 1015.97 1016.17 1016.40 1016.64 1016.89 1017.11 1017.27 1017.38
1007.61 1008.02 1008.23 1008.26 1008.10 1007.79 1007.36 1006.87 1006.36 1005.89 1005.50 1005.24 1005.10 1005.10 1005.23 1005.46 1005.76 1006.10 1006.47 1006.84 1007.22 1007.59 1007.97 1008.35 1008.75 1009.18 1009.64 1010.13 1010.67 1011.25 1011.87 1012.51 1013.16 1013.79 1014.37 1014.87 1015.28 1015.60 1015.84 1016.02 1016.16 1016.31 1016.47 1016.66 1016.86 1017.06 1017.23 1017.35 1017.42
1007.37 1007.73 1007.89 1007.87 1007.68 1007.35 1006.91 1006.42 1005.92 1005.46 1005.10 1004.86 1004.78 1004.85 1005.06 1005.39 1005.81 1006.26 1006.73 1007.18 1007.60 1007.99 1008.35 1008.71 1009.08 1009.48 1009.93 1010.42 1010.98 1011.59 1012.24 1012.92 1013.60 1014.24 1014.83 1015.33 1015.73 1016.03 1016.25 1016.40 1016.52 1016.62 1016.74 1016.88 1017.03 1017.17 1017.30 1017.38 1017.42
1007.04 1007.37 1007.52 1007.49 1007.29 1006.96 1006.52 1006.01 1005.50 1005.03 1004.66 1004.44 1004.39 1004.52 1004.81 1005.25 1005.78 1006.35 1006.91 1007.44 1007.92 1008.33 1008.71 1009.06 1009.42 1009.81 1010.26 1010.77 1011.35 1011.98 1012.67 1013.37 1014.06 1014.70 1015.28 1015.77 1016.15 1016.44 1016.64 1016.77 1016.86 1016.93 1017.01 1017.10 1017.19 1017.28 1017.36 1017.40 1017.41
1006.69 1007.03 1007.19 1007.18 1007.00 1006.67 1006.22 1005.70 1005.16 1004.66 1004.27 1004.03 1003.99 1004.16 1004.53 1005.06 1005.69 1006.37 1007.04 1007.65 1008.18 1008.64 1009.04 1009.40 1009.77 1010.18 1010.64 1011.18 1011.78 1012.44 1013.14 1013.84 1014.52 1015.15 1015.70 1016.16 1016.53 1016.80 1016.99 1017.11 1017.19 1017.25 1017.30 1017.34 1017.39 1017.43 1017.46 1017.46 1017.45
1006.41 1006.78 1006.97 1006.98 1006.83 1006.52 1006.08 1005.54 1004.96 1004.42 1003.98 1003.71 1003.66 1003.85 1004.26 1004.86 1005.58 1006.36 1007.12 1007.81 1008.40 1008.91 1009.34 1009.73 1010.13 1010.57 1011.07 1011.63 1012.27 1012.94 1013.64 1014.32 1014.97 1015.56 1016.07 1016.50 1016.85 1017.11 1017.30 1017.43 1017.52 1017.57 1017.60 1017.62 1017.63 1017.63 1017.62 1017.59 1017.54
1006.26 1006.65 1006.87 1006.94 1006.83 1006.56 1006.12 1005.57 1004.95 1004.35 1003.86 1003.54 1003.46 1003.65 1004.08 1004.72 1005.51 1006.35 1007.17 1007.92 1008.57 1009.12 1009.59 1010.03 1010.47 1010.96 1011.50 1012.11 1012.77 1013.45 1014.13 1014.79 1015.39 1015.92 1016.38 1016.78 1017.10 1017.36 1017.56 1017.71 1017.82 1017.89 1017.92 1017.93 1017.92 1017.89 1017.83 1017.77 1017.69
1006.24 1006.65 1006.92 1007.04 1006.99 1006.76 1006.35 1005.79 1005.15 1004.51 1003.96 1003.58 1003.46 1003.61 1004.04 1004.69 1005.50 1006.37 1007.23 1008.01 1008.70 1009.28 1009.79 1010.27 1010.77 1011.31 1011.91 1012.56 1013.25 1013.94 1014.61 1015.22 1015.76 1016.23 1016.63 1016.98 1017.28 1017.53 1017.75 1017.94 1018.08 1018.17 1018.23 1018.24 1018.21 1018.16 1018.08 1017.99 1017.88
1006.34 1006.76 1007.07 1007.25 1007.27 1007.10 1006.74 1006.21 1005.56 1004.89 1004.29 1003.86 1003.68 1003.79 1004.18 1004.80 1005.59 1006.45 1007.31 1008.09 1008.79 1009.39 1009.93 1010.45 1011.00 1011.60 1012.26 1012.96 1013.68 1014.38 1015.03 1015.60 1016.08 1016.48 1016.82 1017.12 1017.39 1017.65 1017.89 1018.10 1018.28 1018.41 1018.48 1018.51 1018.48 1018.42 1018.32 1018.21 1018.08
1006.52 1006.93 1007.28 1007.53 1007.64 1007.56 1007.27 1006.78 1006.16 1005.48 1004.84 1004.37 1004.13 1004.17 1004.50 1005.07 1005.81 1006.63 1007.44 1008.20 1008.87 1009.47 1010.02 1010.57 1011.17 1011.83 1012.54 1013.30 1014.06 1014.77 1015.40 1015.94 1016.36 1016.71 1016.99 1017.24 1017.48 1017.72 1017.97 1018.21 1018.42 1018.58 1018.68 1018.72 1018.70 1018.64 1018.55 1018.43 1018.30
1006.70 1007.11 1007.51 1007.84 1008.05 1008.08 1007.89 1007.48 1006.90 1006.23 1005.58 1005.07 1004.77 1004.75 1005.00 1005.49 1006.16 1006.90 1007.65 1008.35 1008.98 1009.55 1010.10 1010.67 1011.30 1012.00 1012.77 1013.58 1014.37 1015.10 1015.73 1016.24 1016.63 1016.92 1017.15 1017.35 1017.56 1017.78 1018.03 1018.28 1018.51 1018.69 1018.81 1018.87 1018.87 1018.83 1018.74 1018.64 1018.53
1006.83 1007.25 1007.70 1008.13 1008.46 1008.62 1008.55 1008.24 1007.73 1007.09 1006.44 1005.90 1005.55 1005.46 1005.64 1006.05 1006.63 1007.30 1007.97 1008.60 1009.17 1009.70 1010.23 1010.79 1011.43 1012.17 1012.97 1013.82 1014.64 1015.40 1016.04 1016.53 1016.89 1017.14 1017.32 1017.48 1017.65 1017.86 1018.09 1018.33 1018.57 1018.76 1018.90 1018.98 1019.00 1018.98 1018.93 1018.86 1018.79
1006.87 1007.31 1007.84 1008.38 1008.85 1009.15 1009.21 1009.01 1008.57 1007.98 1007.34 1006.77 1006.38 1006.24 1006.35 1006.70 1007.20 1007.80 1008.40 1008.96 1009.48 1009.96 1010.45 1010.99 1011.62 1012.36 1013.19 1014.05 1014.90 1015.67 1016.32 1016.81 1017.16 1017.38 1017.53 1017.65 1017.79 1017.96 1018.17 1018.40 1018.63 1018.83 1018.98 1019.08 1019.12 1019.13 1019.11 1019.09 1019.07
1006.81 1007.29 1007.91 1008.59 1009.20 1009.64 1009.83 1009.72 1009.36 1008.80 1008.17 1007.60 1007.18 1007.00 1007.07 1007.37 1007.83 1008.38 1008.93 1009.45 1009.92 1010.35 1010.80 1011.30 1011.91 1012.63 1013.44 1014.31 1015.16 1015.94 1016.59 1017.09 1017.42 1017.63 1017.76 1017.86 1017.97 1018.11 1018.29 1018.50 1018.72 1018.91 1019.07 1019.17 1019.24 1019.27 1019.30 1019.32 1019.35
1006.67 1007.22 1007.95 1008.75 1009.50 1010.06 1010.35 1010.33 1010.01 1009.48 1008.86 1008.28 1007.86 1007.66 1007.72 1008.01 1008.46 1009.00 1009.54 1010.04 1010.48 1010.88 1011.28 1011.74 1012.30 1012.97 1013.75 1014.58 1015.42 1016.19 1016.84 1017.34 1017.68 1017.89 1018.00 1018.09 1018.17 1018.29 1018.45 1018.63 1018.83 1019.02 1019.17 1019.28 1019.36 1019.42 1019.47 1019.53 1019.60
1006.51 1007.14 1007.98 1008.89 1009.74 1010.40 1010.76 1010.78 1010.49 1009.97 1009.36 1008.78 1008.35 1008.17 1008.25 1008.56 1009.04 1009.61 1010.17 1010.68 1011.12 1011.50 1011.87 1012.28 1012.77 1013.38 1014.10 1014.88 1015.68 1016.42 1017.06 1017.55 1017.89 1018.10 1018.22 1018.30 1018.37 1018.47 1018.61 1018.78 1018.97 1019.14 1019.28 1019.39 1019.47 1019.53 1019.59 1019.66 1019.75
1006.39 1007.11 1008.03 1009.02 1009.94 1010.64 1011.03 1011.06 1010.77 1010.24 1009.62 1009.05 1008.64 1008.49 1008.62 1008.98 1009.53 1010.16 1010.78 1011.33 1011.79 1012.17 1012.51 1012.87 1013.30 1013.83 1014.47 1015.18 1015.92 1016.62 1017.23 1017.71 1018.05 1018.27 1018.40 1018.47 1018.55 1018.64 1018.76 1018.92 1019.08 1019.24 1019.37 1019.47 1019.53 1019.58 1019.62 1019.67 1019.74
1006.37 1007.14 1008.12 1009.15 1010.08 1010.78 1011.15 1011.16 1010.84 1010.29 1009.67 1009.11 1008.74 1008.64 1008.83 1009.27 1009.90 1010.61 1011.31 1011.92 1012.41 1012.80 1013.13 1013.45 1013.82 1014.27 1014.82 1015.45 1016.12 1016.77 1017.34 1017.81 1018.14 1018.37 1018.50 1018.59 1018.66 1018.75 1018.87 1019.00 1019.15 1019.29 1019.40 1019.48 1019.51 1019.52 1019.52 1019.53 1019.55
1006.47 1007.27 1008.25 1009.26 1010.15 1010.80 1011.10 1011.06 1010.70 1010.14 1009.52 1008.99 1008.67 1008.64 1008.91 1009.45 1010.17 1010.96 1011.73 1012.41 1012.95 1013.36 1013.68 1013.96 1014.28 1014.66 1015.13 1015.68 1016.28 1016.86 1017.40 1017.84 1018.17 1018.39 1018.54 1018.63 1018.70 1018.79 1018.90 1019.02 1019.15 1019.27 1019.35 1019.39 1019.38 1019.34 1019.28 1019.22 1019.17
1006.70 1007.47 1008.39 1009.32 1010.11 1010.66 1010.87 1010.76 1010.36 1009.80 1009.21 1008.73 1008.49 1008.54 1008.90 1009.53 1010.33 1011.20 1012.04 1012.77 1013.34 1013.78 1014.10 1014.36 1014.64 1014.97 1015.37 1015.86 1016.38 1016.92 1017.41 1017.82 1018.14 1018.36 1018.51 1018.60 1018.68 1018.75 1018.85 1018.96 1019.06 1019.15 1019.20 1019.20 1019.15 1019.05 1018.93 1018.79 1018.66
1007.01 1007.69 1008.49 1009.28 1009.92 1010.33 1010.44 1010.26 1009.85 1009.30 1008.77 1008.38 1008.23 1008.38 1008.83 1009.54 1010.41 1011.33 1012.21 1012.98 1013.58 1014.03 1014.36 1014.62 1014.87 1015.17 1015.53 1015.97 1016.45 1016.93 1017.39 1017.78 1018.08 1018.29 1018.43 1018.52 1018.59 1018.65 1018.73 1018.81 1018.89 1018.94 1018.96 1018.92 1018.82 1018.68 1018.50 1018.30 1018.11
1007.33 1007.86 1008.48 1009.07 1009.53 1009.78 1009.79 1009.55 1009.14 1008.65 1008.22 1007.94 1007.91 1008.17 1008.71 1009.48 1010.39 1011.35 1012.24 1013.02 1013.63 1014.10 1014.44 1014.71 1014.96 1015.25 1015.60 1016.01 1016.46 1016.92 1017.34 1017.71 1017.99 1018.19 1018.32 1018.39 1018.44 1018.49 1018.54 1018.59 1018.64 1018.66 1018.64 1018.57 1018.44 1018.27 1018.05 1017.82 1017.59
1007.57 1007.91 1008.30 1008.66 1008.91 1009.00 1008.90 1008.63 1008.25 1007.86 1007.54 1007.41 1007.52 1007.89 1008.51 1009.33 1010.27 1011.22 1012.11 1012.88 1013.50 1013.97 1014.33 1014.62 1014.90 1015.21 1015.57 1015.98 1016.42 1016.86 1017.27 1017.61 1017.88 1018.06 1018.17 1018.23 1018.26 1018.28 1018.30 1018.32 1018.33 1018.32 1018.28 1018.19 1018.05 1017.87 1017.65 1017.41 1017.18
Thickness
5808 5806 5802 5791 5773 5755 5751 5762 5770 5770 5771 5777 5780 5776 5768 5762 5758 5755 5776 5785 5785 5784 5784 5783 5782 5782 5781 5781 5781 5781 5781 5780 5780 5780 5779 5778 5778 5777 5777 5776 5775 5774 5773 5772 5771 5770 5768 5767 5766
5811 5807 5798 5784 5761 5742 5750 5766 5769 5772 5777 5782 5781 5776 5769 5766 5773 5774 5779 5784 5785 5784 5783 5783 5782 5781 5780 5780 5779 5779 5779 5779 5779 5778 5778 5777 5777 5777 5776 5775 5775 5774 5773 5772 5770 5769 5768 5766 5765
5812 5807 5790 5774 5758 5748 5755 5770 5773 5779 5784 5783 5776 5776 5771 5768 5775 5777 5782 5785 5785 5783 5783 5782 5781 5780 5779 5779 5778 5778 5778 5777 5777 5777 5777 5776 5776 5775 5775 5775 5774 5773 5773 5772 5770 5769 5768 5766 5765
5810 5798 5786 5768 5759 5766 5771 5776 5780 5779 5782 5783 5777 5770 5774 5781 5781 5783 5785 5785 5783 5782 5782 5781 5780 5779 5778 5778 5777 5777 5777 5776 5776 5776 5776 5775 5774 5774 5774 5774 5773 5773 5772 5771 5769 5768 5767 5766 5765
5808 5790 5772 5760 5764 5775 5782 5785 5784 5777 5776 5778 5777 5768 5768 5781 5786 5786 5785 5784 5782 5781 5781 5780 5779 5779 5778 5777 5776 5776 5775 5775 5775 5774 5774 5774 5773 5772 5772 5772 5772 5772 5771 5769 5768 5767 5766 5765 5764
5796 5784 5761 5754 5764 5777 5784 5789 5785 5778 5777 5779 5776 5768 5768 5781 5783 5784 5785 5783 5782 5781 5780 5780 5778 5778 5777 5776 5775 5775 5774 5774 5773 5773 5773 5773 5772 5771 5771 5771 5771 5770 5770 5769 5767 5765 5764 5763 5763
5792 5777 5764 5763 5765 5773 5783 5791 5784 5778 5776 5778 5780 5767 5769 5778 5783 5784 5784 5783 5781 5781 5780 5779 5778 5778 5777 5776 5775 5774 5774 5773 5773 5772 5772 5771 5771 5770 5770 5769 5770 5770 5769 5768 5766 5764 5763 5762 5761
5802 5781 5769 5766 5768 5773 5788 5792 5790 5784 5781 5789 5786 5769 5767 5778 5784 5784 5782 5781 5780 5780 5779 5778 5778 5777 5776 5775 5775 5774 5773 5773 5772 5771 5771 5770 5770 5769 5769 5769 5769 5769 5768 5767 5765 5764 5762 5761 5760
5808 5777 5765 5772 5775 5779 5791 5789 5790 5795 5789 5789 5789 5784 5784 5786 5784 5780 5778 5777 5777 5778 5778 5778 5777 5777 5776 5775 5774 5773 5772 5771 5770 5770 5769 5769 5768 5768 5768 5768 5768 5767 5766 5766 5765 5763 5761 5760 5758
5798 5774 5780 5793 5793 5790 5792 5791 5790 5788 5782 5782 5783 5786 5788 5785 5781 5776 5774 5773 5774 5775 5777 5777 5776 5776 5775 5774 5773 5772 5771 5770 5769 5769 5769 5768 5767 5767 5766 5766 5767 5766 5765 5765 5764 5762 5760 5758 5757
5800 5789 5798 5803 5805 5800 5794 5792 5796 5786 5777 5782 5782 5783 5784 5782 5778 5776 5775 5775 5775 5776 5776 5777 5776 5775 5774 5773 5772 5771 5770 5769 5769 5768 5768 5767 5766 5766 5765 5765 5765 5764 5764 5763 5762 5761 5759 5757 5755
5802 5802 5807 5807 5810 5803 5797 5795 5792 5789 5789 5797 5795 5791 5785 5780 5777 5776 5775 5775 5776 5776 5776 5777 5777 5775 5774 5773 5772 5771 5770 5769 5768 5768 5767 5766 5766 5765 5765 5764 5764 5764 5763 5761 5760 5759 5757 5756 5754
5802 5804 5810 5811 5809 5806 5802 5795 5794 5793 5800 5801 5796 5790 5784 5781 5779 5780 5780 5779 5778 5776 5776 5777 5777 5776 5774 5773 5772 5771 5770 5769 5768 5767 5767 5767 5766 5765 5764 5764 5764 5763 5762 5761 5759 5757 5755 5754 5752
5807 5807 5807 5809 5808 5807 5799 5795 5794 5793 5800 5797 5792 5787 5785 5783 5782 5780 5779 5778 5778 5777 5777 5778 5777 5777 5775 5773 5772 5771 5770 5769 5768 5767 5767 5767 5766 5765 5765 5764 5764 5762 5761 5760 5758 5756 5754 5752 5751
5811 5801 5800 5804 5805 5804 5800 5786 5790 5797 5799 5793 5790 5787 5785 5784 5783 5782 5782 5780 5780 5779 5779 5778 5778 5777 5775 5774 5773 5772 5771 5769 5768 5767 5767 5767 5766 5765 5765 5764 5763 5762 5761 5759 5757 5755 5753 5751 5749
5802 5789 5780 5796 5801 5802 5791 5772 5791 5799 5795 5789 5788 5787 5784 5783 5784 5784 5784 5783 5782 5780 5779 5779 5780 5777 5776 5774 5773 5772 5771 5770 5769 5768 5767 5767 5766 5765 5764 5763 5762 5761 5760 5758 5756 5754 5751 5748 5746
5781 5771 5774 5786 5799 5798 5788 5777 5791 5798 5794 5788 5787 5786 5783 5782 5783 5785 5786 5785 5784 5782 5781 5779 5779 5778 5776 5774 5773 5772 5771 5770 5769 5768 5768 5767 5766 5765 5764 5763 5761 5760 5759 5757 5755 5752 5749 5745 5743
5770 5771 5774 5777 5792 5793 5784 5782 5791 5795 5792 5788 5787 5785 5783 5782 5784 5787 5787 5787 5785 5784 5782 5780 5779 5778 5777 5775 5773 5771 5770 5770 5769 5768 5768 5767 5766 5765 5764 5762 5760 5759 5758 5755 5753 5750 5748 5745 5742
5787 5779 5774 5782 5796 5789 5782 5782 5788 5793 5790 5788 5786 5784 5783 5784 5788 5789 5788 5788 5785 5784 5782 5781 5779 5778 5776 5773 5771 5769 5768 5768 5768 5768 5767 5767 5766 5765 5763 5761 5759 5758 5755 5753 5751 5749 5746 5742 5741
5787 5779 5777 5785 5796 5789 5780 5781 5789 5792 5792 5792 5790 5787 5787 5786 5786 5787 5787 5787 5785 5784 5783 5781 5780 5779 5777 5775 5773 5772 5770 5769 5768 5768 5767 5766 5765 5764 5763 5760 5758 5757 5755 5752 5750 5748 5744 5741 5739
5784 5780 5780 5779 5787 5788 5780 5773 5781 5790 5794 5795 5794 5792 5791 5790 5787 5787 5787 5786 5786 5785 5784 5784 5781 5780 5778 5777 5774 5772 5770 5768 5767 5766 5765 5765 5765 5764 5762 5760 5758 5756 5754 5751 5749 5747 5744 5739 5737
5779 5794 5791 5784 5770 5761 5771 5749 5773 5782 5785 5790 5792 5793 5793 5794 5792 5789 5788 5787 5787 5787 5787 5784 5782 5781 5779 5777 5774 5771 5767 5764 5764 5765 5765 5765 5764 5763 5761 5760 5758 5756 5753 5751 5749 5747 5744 5741 5736
5791 5800 5792 5782 5769 5758 5762 5751 5762 5779 5778 5786 5793 5797 5798 5798 5796 5793 5792 5791 5790 5789 5787 5785 5783 5781 5779 5777 5775 5771 5768 5767 5765 5765 5764 5763 5762 5762 5760 5759 5757 5755 5752 5750 5748 5746 5744 5741 5738
5801 5790 5779 5766 5756 5743 5756 5750 5755 5771 5783 5791 5797 5800 5802 5802 5800 5797 5795 5793 5791 5790 5788 5785 5782 5780 5779 5777 5775 5772 5769 5767 5764 5763 5761 5761 5761 5760 5759 5758 5756 5754 5752 5749 5747 5745 5743 5741 5738
5790 5766 5742 5739 5730 5736 5756 5753 5761 5789 5798 5801 5801 5803 5805 5804 5801 5797 5794 5792 5790 5789 5788 5785 5782 5780 5779 5777 5775 5773 5771 5768 5765 5763 5762 5760 5759 5758 5758 5757 5755 5753 5751 5749 5747 5745 5743 5740 5738
5780 5769 5741 5729 5726 5735 5751 5750 5774 5800 5806 5808 5808 5807 5807 5804 5802 5799 5797 5795 5793 5791 5788 5785 5782 5780 5779 5776 5775 5773 5771 5769 5767 5765 5763 5761 5760 5759 5758 5757 5755 5753 5751 5749 5747 5745 5742 5740 5738
5775 5766 5767 5742 5737 5732 5741 5758 5780 5799 5801 5803 5803 5804 5803 5804 5803 5801 5799 5797 5795 5792 5790 5787 5784 5781 5778 5776 5775 5773 5771 5769 5767 5766 5764 5762 5761 5760 5758 5757 5755 5753 5751 5749 5746 5744 5741 5739 5737
5787 5769 5751 5738 5724 5723 5739 5749 5760 5782 5790 5795 5797 5799 5802 5802 5802 5802 5800 5798 5797 5795 5792 5788 5785 5781 5779 5777 5775 5773 5771 5769 5767 5765 5763 5762 5761 5759 5757 5756 5755 5753 5751 5749 5746 5743 5741 5738 5736
5772 5763 5749 5736 5738 5724 5724 5746 5786 5788 5794 5794 5797 5800 5801 5801 5802 5801 5800 5799 5797 5794 5791 5787 5784 5780 5778 5776 5774 5772 5770 5769 5767 5765 5764 5762 5760 5759 5757 5755 5754 5752 5750 5748 5746 5743 5740 5737 5735
5781 5769 5755 5743 5734 5731 5729 5749 5798 5797 5798 5798 5798 5800 5802 5802 5802 5801 5800 5797 5795 5791 5788 5785 5783 5780 5778 5776 5774 5771 5769 5767 5766 5764 5763 5761 5759 5758 5756 5754 5752 5751 5749 5747 5744 5742 5740 5737 5734